DW5566 Rabat MA current weather conditions

sailwx.info

Wind from 276 at 7 knots gusting 12

Air temperature 15.0° C
Dewpoint 7.5° C

Last reported at 2019-Nov-15 20:10 UTC.
Time now 2019-Nov-15 21:05 UTC

Location: N 33°54' W 006°59'.
View on Google Maps.

See reports from other nearby stations

  
Tides and Currents Weather Stations Pressure Air Temp Water Temp Dewpoint Dewpoint Depression Visibility Wind Speed Wind Dir Waves Ship Positions
date/time (UTC)wind fromknots sea level pressurealtimeterstation pressurevisibilityair tempwater tempwave heightnotes
2019-Nov-15 20:10 276 7 gusting 12 15.0
2019-Nov-15 20:05 269 7 gusting 14 15.0
2019-Nov-15 19:55 290 8 gusting 15 15.6
2019-Nov-15 19:50 280 11 gusting 16 15.6
2019-Nov-15 19:40 342 9 gusting 12 16.1
2019-Nov-15 19:35 319 9 gusting 14 16.1
2019-Nov-15 19:30 310 11 gusting 14 16.1
2019-Nov-15 19:25 333 10 gusting 13 15.6
2019-Nov-15 19:20 312 11 gusting 13 15.6
2019-Nov-15 19:15 304 9 gusting 13 16.1
2019-Nov-15 19:10 316 9 gusting 14 15.6
2019-Nov-15 19:05 344 10 gusting 14 15.6
2019-Nov-15 18:55 331 10 gusting 17 15.6
2019-Nov-15 18:50 329 11 gusting 17 15.6
2019-Nov-15 18:40 343 9 gusting 15 16.1
2019-Nov-15 18:30 331 11 gusting 15 15.6
2019-Nov-15 18:25 323 10 gusting 14 15.6
2019-Nov-15 18:20 310 12 gusting 14 15.6
2019-Nov-15 18:10 333 11 gusting 13 15.6
2019-Nov-15 18:05 327 11 gusting 13 15.6
2019-Nov-15 18:00 327 10 gusting 13 15.6
2019-Nov-15 17:55 319 11 gusting 13 15.6
2019-Nov-15 17:50 329 7 gusting 13 15.6
2019-Nov-15 17:45 328 11 gusting 13 15.6
2019-Nov-15 17:40 335 9 gusting 13 15.6
2019-Nov-15 17:35 314 9 gusting 15 15.6
2019-Nov-15 17:30 342 11 gusting 15 15.6
2019-Nov-15 17:25 333 11 gusting 13 15.6
2019-Nov-15 17:20 335 10 gusting 13 15.6
2019-Nov-15 17:10 330 10 gusting 13 15.0
2019-Nov-15 17:05 312 8 gusting 11 15.0
2019-Nov-15 17:00 330 6 gusting 7 15.0
2019-Nov-15 16:55 309 5 gusting 11 14.4
2019-Nov-15 16:50 317 6 gusting 11 14.4
2019-Nov-15 16:45 318 7 gusting 12 14.4
2019-Nov-15 16:40 322 8 gusting 12 14.4
2019-Nov-15 16:35 333 7 gusting 12 14.4
2019-Nov-15 16:30 333 8 gusting 24 14.4
2019-Nov-15 16:25 020 6 gusting 24 14.4
2019-Nov-15 16:20 336 13 gusting 16 15.6
2019-Nov-15 16:15 325 9 gusting 13 15.6
2019-Nov-15 16:10 330 6 gusting 8 15.6
2019-Nov-15 16:05 332 6 gusting 7 15.6
2019-Nov-15 16:00 328 6 gusting 9 15.6
2019-Nov-15 15:55 338 6 gusting 11 15.6
2019-Nov-15 15:48 334 10 gusting 12 15.6
2019-Nov-15 15:40 305 7 gusting 10 15.6
2019-Nov-15 15:36 323 6 gusting 12 15.6
2019-Nov-15 15:31 304 9 gusting 15 15.6
2019-Nov-15 15:26 311 12 gusting 15 15.6
2019-Nov-15 15:20 293 9 gusting 12 15.6
2019-Nov-15 15:17 319 10 gusting 13 15.6
2019-Nov-15 15:11 310 9 gusting 13 15.6
2019-Nov-15 15:05 314 11 gusting 13 15.6
2019-Nov-15 15:01 327 11 gusting 15 15.6
2019-Nov-15 14:56 289 12 gusting 15 15.6
2019-Nov-15 14:50 320 13 gusting 15 15.6
2019-Nov-15 14:47 307 9 gusting 15 15.6
2019-Nov-15 14:40 313 12 gusting 16 15.0
2019-Nov-15 14:35 294 10 gusting 23 14.4
2019-Nov-15 14:32 293 13 gusting 23 15.0
2019-Nov-15 14:26 326 17 gusting 22 15.6
2019-Nov-15 14:21 290 11 gusting 29 15.0
2019-Nov-15 14:16 349 6 gusting 29 15.0
2019-Nov-15 14:10 304 8 gusting 12 15.6
2019-Nov-15 14:05 290 8 gusting 12 16.1
2019-Nov-15 14:01 295 9 gusting 12 16.1
2019-Nov-15 13:55 283 8 gusting 14 16.1
2019-Nov-15 13:50 293 10 gusting 14 16.1
2019-Nov-15 13:40 278 6 gusting 12 16.1
2019-Nov-15 13:35 283 6 gusting 11 15.6
2019-Nov-15 13:32 283 7 gusting 11 15.6
2019-Nov-15 13:25 246 6 gusting 11 15.6
2019-Nov-15 13:20 257 7 gusting 10 15.6
2019-Nov-15 13:16 271 6 gusting 8 15.6
2019-Nov-15 13:10 264 6 gusting 8 15.6
2019-Nov-15 13:05 267 6 gusting 9 15.6
2019-Nov-15 13:01 274 6 gusting 9 15.6
2019-Nov-15 12:55 283 6 gusting 9 15.6
2019-Nov-15 12:50 289 6 gusting 9 15.6
2019-Nov-15 12:48 295 6 gusting 9 15.0
2019-Nov-15 12:40 294 6 gusting 8 15.0
2019-Nov-15 12:35 272 5 gusting 6 15.0
2019-Nov-15 12:31 253 4 gusting 6 14.4
2019-Nov-15 12:25 266 4 gusting 6 14.4
2019-Nov-15 12:20 293 4 gusting 6 13.9
2019-Nov-15 12:16 321 2 gusting 6 13.3
2019-Nov-15 12:11 295 4 gusting 6 13.3
2019-Nov-15 12:05 302 3 gusting 5 13.3
2019-Nov-15 12:01 314 3 gusting 6 12.8
2019-Nov-15 11:55 333 3 gusting 13 12.8
2019-Nov-15 11:50 359 8 gusting 16 12.8
2019-Nov-15 11:46 330 12 gusting 18 13.3
2019-Nov-15 11:40 309 13 gusting 18 13.3
2019-Nov-15 11:35 306 13 gusting 21 13.3
2019-Nov-15 11:31 335 13 gusting 26 13.3
2019-Nov-15 11:25 303 19 gusting 26 14.4
2019-Nov-15 11:20 323 18 gusting 25 15.0
2019-Nov-15 11:16 304 10 gusting 14 16.1
2019-Nov-15 11:10 295 7 gusting 10 16.1
2019-Nov-15 11:05 286 6 gusting 9 16.1
2019-Nov-15 11:00 295 6 gusting 9 16.1
2019-Nov-15 10:55 288 7 gusting 9 16.1
2019-Nov-15 10:50 314 7 gusting 9 16.1
2019-Nov-15 10:46 323 4 gusting 9 16.1
2019-Nov-15 10:40 303 6 gusting 8 16.1
2019-Nov-15 10:35 288 6 gusting 8 16.1
2019-Nov-15 10:31 290 6 gusting 10 16.1
2019-Nov-15 10:25 273 7 gusting 10 16.1
2019-Nov-15 10:20 292 6 gusting 10 16.1
2019-Nov-15 10:15 285 7 gusting 10 16.1
2019-Nov-15 10:10 301 6 gusting 9 16.1
2019-Nov-15 10:05 280 6 gusting 12 15.6
2019-Nov-15 10:01 292 9 gusting 13 15.6
2019-Nov-15 09:55 291 10 gusting 16 15.6
2019-Nov-15 09:50 290 9 gusting 16 15.6
2019-Nov-15 09:45 316 10 gusting 15 16.1
2019-Nov-15 09:40 313 12 gusting 15 16.1
2019-Nov-15 09:35 327 9 gusting 13 16.1
2019-Nov-15 09:31 317 9 gusting 13 16.1
2019-Nov-15 09:25 319 9 gusting 13 16.1
2019-Nov-15 09:20 308 9 gusting 12 16.1
2019-Nov-15 09:15 293 8 gusting 11 16.1
2019-Nov-15 09:10 295 7 gusting 10 16.1
2019-Nov-15 09:05 297 6 gusting 10 16.1
2019-Nov-15 09:00 316 6 gusting 10 16.1
2019-Nov-15 08:55 308 6 gusting 10 16.1
2019-Nov-15 08:50 307 6 gusting 12 16.1
2019-Nov-15 08:46 338 8 gusting 12 16.1
2019-Nov-15 08:40 323 7 gusting 12 16.1
2019-Nov-15 08:35 321 7 gusting 11 15.6
2019-Nov-15 08:30 317 8 gusting 13 15.6
2019-Nov-15 08:25 314 9 gusting 13 15.6
2019-Nov-15 08:20 294 10 gusting 13 15.0
2019-Nov-15 08:15 313 8 gusting 15 15.0
2019-Nov-15 08:10 308 10 gusting 15 15.0
2019-Nov-15 08:05 310 12 gusting 14 14.4
2019-Nov-15 08:01 302 8 gusting 11 14.4
2019-Nov-15 07:55 306 9 gusting 12 13.9
2019-Nov-15 07:50 314 9 gusting 13 13.9
2019-Nov-15 07:45 313 11 gusting 13 13.3
2019-Nov-15 07:40 320 9 gusting 18 12.8
2019-Nov-15 07:35 328 9 gusting 21 12.2
2019-Nov-15 07:30 323 14 gusting 21 12.8
2019-Nov-15 07:25 316 8 gusting 33 12.2
2019-Nov-15 07:20 316 19 gusting 33 13.3
2019-Nov-15 07:15 294 6 gusting 11 13.9
2019-Nov-15 07:10 275 5 gusting 18 13.9
2019-Nov-15 07:05 316 11 gusting 14 15.0
2019-Nov-15 07:00 339 12 gusting 17 15.0
2019-Nov-15 06:55 345 13 gusting 18 15.0
2019-Nov-15 06:50 003 15 gusting 18 15.6
2019-Nov-15 06:45 009 9 gusting 14 16.1
2019-Nov-15 06:40 325 6 gusting 11 16.1
2019-Nov-15 06:35 310 8 gusting 11 16.1
2019-Nov-15 06:25 322 8 gusting 12 16.1
2019-Nov-15 06:20 293 7 gusting 13 16.1
2019-Nov-15 06:10 292 9 gusting 13 16.1
2019-Nov-15 06:05 300 8 gusting 12 16.1
2019-Nov-15 05:55 300 10 gusting 13 16.1
2019-Nov-15 05:50 309 10 gusting 14 16.1
2019-Nov-15 05:40 311 9 gusting 13 16.1
2019-Nov-15 05:35 305 10 gusting 13 16.1
2019-Nov-15 05:25 314 11 gusting 14 16.1
2019-Nov-15 05:20 316 12 gusting 15 16.1
2019-Nov-15 05:10 323 13 gusting 18 16.1
2019-Nov-15 05:05 322 13 gusting 19 16.1
2019-Nov-15 04:55 313 16 gusting 19 16.1
2019-Nov-15 04:50 321 11 gusting 15 16.7
2019-Nov-15 04:40 321 12 gusting 14 16.7
2019-Nov-15 04:35 314 12 gusting 14 16.7
2019-Nov-15 04:30 310 8 gusting 13 16.7
2019-Nov-15 04:25 305 10 gusting 13 16.7
2019-Nov-15 04:20 328 11 gusting 13 16.7
2019-Nov-15 04:15 316 8 gusting 13 16.7
2019-Nov-15 04:10 321 10 gusting 13 16.7
2019-Nov-15 04:05 333 10 gusting 14 16.7
2019-Nov-15 04:00 329 11 gusting 14 16.1
2019-Nov-15 03:55 330 10 gusting 14 16.1
2019-Nov-15 03:50 326 9 gusting 16 16.1
2019-Nov-15 03:45 336 11 gusting 16 16.1
2019-Nov-15 03:40 338 12 gusting 17 16.1
2019-Nov-15 03:35 355 12 gusting 17 16.1
2019-Nov-15 03:30 326 5 gusting 10 15.6
2019-Nov-15 03:21 304 5 gusting 6 15.6
2019-Nov-15 03:16 304 5 gusting 6 15.6
2019-Nov-15 03:11 323 5 gusting 6 15.6
2019-Nov-15 03:05 326 4 gusting 9 15.0
2019-Nov-15 03:02 338 6 gusting 13 15.0
2019-Nov-15 02:56 332 11 gusting 22 15.0
2019-Nov-15 02:50 327 10 gusting 22 15.6
2019-Nov-15 02:47 316 6 gusting 10 16.7
2019-Nov-15 02:40 328 6 gusting 11 16.7
2019-Nov-15 02:36 327 8 gusting 11 16.7
2019-Nov-15 02:31 330 6 gusting 8 16.7
2019-Nov-15 02:25 312 6 gusting 8 16.7
2019-Nov-15 02:20 321 6 gusting 10 16.7
2019-Nov-15 02:16 327 7 gusting 11 16.7
2019-Nov-15 02:10 338 7 gusting 12 16.7
2019-Nov-15 02:05 331 8 gusting 12 16.7
2019-Nov-15 02:01 323 8 gusting 13 17.2
2019-Nov-15 01:55 324 9 gusting 16 16.7
2019-Nov-15 01:50 328 11 gusting 16 16.7
2019-Nov-15 01:46 335 8 gusting 11 17.2
2019-Nov-15 01:40 333 8 gusting 13 16.7
2019-Nov-15 01:35 335 8 gusting 13 16.7
2019-Nov-15 01:32 347 7 gusting 10 16.7
2019-Nov-15 01:25 006 6 gusting 9 16.7
2019-Nov-15 01:20 342 7 gusting 10 16.7
2019-Nov-15 01:16 354 6 gusting 11 16.7
2019-Nov-15 01:10 349 7 gusting 12 16.7
2019-Nov-15 01:05 005 8 gusting 12 16.7
2019-Nov-15 01:01 004 8 gusting 11 16.7
2019-Nov-15 00:55 342 7 gusting 12 16.7
2019-Nov-15 00:50 344 9 gusting 12 16.7
2019-Nov-15 00:47 338 8 gusting 12 16.7
2019-Nov-15 00:40 337 8 gusting 13 16.7
2019-Nov-15 00:35 329 9 gusting 13 16.7
2019-Nov-15 00:32 347 9 gusting 13 16.7
2019-Nov-15 00:25 340 9 gusting 13 16.7
2019-Nov-15 00:20 339 9 gusting 13 16.7
2019-Nov-15 00:16 002 8 gusting 14 16.7
2019-Nov-15 00:10 349 11 gusting 14 16.7
2019-Nov-15 00:05 345 10 gusting 13 16.7
2019-Nov-15 00:01 339 11 gusting 13 16.7
2019-Nov-14 23:55 319 4 gusting 18 16.1
2019-Nov-14 23:50 329 12 gusting 18 16.7
2019-Nov-14 23:46 340 8 gusting 11 17.2
2019-Nov-14 23:40 339 6 gusting 9 17.2
2019-Nov-14 23:35 325 6 gusting 10 16.7
2019-Nov-14 23:31 328 6 gusting 10 16.7
2019-Nov-14 23:25 332 7 gusting 10 16.7
2019-Nov-14 23:20 338 7 gusting 11 16.7
2019-Nov-14 23:16 337 8 gusting 12 16.7
2019-Nov-14 23:10 300 8 gusting 12 16.7
2019-Nov-14 23:05 339 7 gusting 12 16.7
2019-Nov-14 23:01 333 7 gusting 12 16.7
2019-Nov-14 22:55 341 8 gusting 12 16.7
2019-Nov-14 22:50 327 7 gusting 12 16.7
2019-Nov-14 22:46 339 8 gusting 12 16.7
2019-Nov-14 22:40 341 8 gusting 12 16.7
2019-Nov-14 22:35 359 8 gusting 12 16.7
2019-Nov-14 22:32 345 7 gusting 13 16.7
2019-Nov-14 22:25 004 8 gusting 13 16.7
2019-Nov-14 22:20 338 9 gusting 15 16.1
2019-Nov-14 22:15 347 11 gusting 15 16.1
2019-Nov-14 22:10 319 9 gusting 15 16.1
2019-Nov-14 22:05 358 11 gusting 15 15.6
2019-Nov-14 22:01 326 9 gusting 18 15.0
2019-Nov-14 21:55 360 10 gusting 18 15.0
2019-Nov-14 21:50 344 9 gusting 14 14.4
2019-Nov-14 21:46 012 9 gusting 13 14.4
2019-Nov-14 21:40 339 9 gusting 14 14.4
2019-Nov-14 21:35 338 10 gusting 14 14.4
2019-Nov-14 21:30 350 8 gusting 12 14.4
2019-Nov-14 21:25 318 2 gusting 7 15.0
2019-Nov-14 21:20 352 5 gusting 7 15.0
2019-Nov-14 21:01 337 4 gusting 6 14.4
2019-Nov-14 20:55 340 2 gusting 5 14.4
2019-Nov-14 20:50 006 2 gusting 5 14.4
2019-Nov-14 20:45 010 3 gusting 7 13.9
2019-Nov-14 20:40 021 6 gusting 7 13.9
2019-Nov-14 20:35 013 5 gusting 9 13.9
2019-Nov-14 20:30 021 6 gusting 11 13.9
2019-Nov-14 20:25 340 6 gusting 11 13.9
2019-Nov-14 20:20 353 8 gusting 11 14.4
2019-Nov-14 20:15 024 7 gusting 11 14.4
2019-Nov-14 20:10 009 8 gusting 13 14.4
2019-Nov-14 20:05 024 10 gusting 13 14.4
2019-Nov-14 20:00 011 10 gusting 13 14.4
2019-Nov-14 19:55 346 8 gusting 12 14.4
2019-Nov-14 19:50 326 6 gusting 10 14.4
2019-Nov-14 19:46 342 7 gusting 12 13.9
2019-Nov-14 19:40 340 7 gusting 15 13.9
2019-Nov-14 19:35 354 9 gusting 17 14.4
2019-Nov-14 19:31 359 13 gusting 19 14.4
2019-Nov-14 19:25 013 11 gusting 13 14.4
2019-Nov-14 19:20 028 11 gusting 16 14.4
2019-Nov-14 19:16 018 13 gusting 16 14.4
2019-Nov-14 19:10 022 11 gusting 18 14.4
2019-Nov-14 19:05 006 15 gusting 21 14.4
2019-Nov-14 19:00 001 17 gusting 25 15.0
2019-Nov-14 18:55 009 19 gusting 25 15.0
2019-Nov-14 18:50 319 6 gusting 9 15.6
2019-Nov-14 18:45 293 4 gusting 7 15.0
2019-Nov-14 18:40 288 4 gusting 7 15.0
2019-Nov-14 18:35 287 4 gusting 7 15.0
2019-Nov-14 18:30 293 5 gusting 8 15.0
2019-Nov-14 18:25 287 6 gusting 9 15.0
2019-Nov-14 18:20 293 6 gusting 9 15.0
2019-Nov-14 18:15 297 6 gusting 12 14.4
2019-Nov-14 18:10 309 6 gusting 15 14.4
2019-Nov-14 18:05 302 9 gusting 19 14.4
2019-Nov-14 18:00 309 13 gusting 21 14.4
2019-Nov-14 17:55 332 17 gusting 24 15.0
2019-Nov-14 17:50 286 19 gusting 27 15.0
2019-Nov-14 17:46 314 20 gusting 27 15.0
2019-Nov-14 17:40 302 16 gusting 26 15.6
2019-Nov-14 17:35 314 20 gusting 26 15.6
2019-Nov-14 17:30 335 15 gusting 23 16.7
2019-Nov-14 17:25 328 17 gusting 23 16.7
2019-Nov-14 17:20 335 10 gusting 14 17.8
2019-Nov-14 17:16 266 6 gusting 10 17.8
2019-Nov-14 17:10 274 7 gusting 10 17.8
2019-Nov-14 17:05 282 6 gusting 10 17.8
2019-Nov-14 17:00 281 7 gusting 10 17.8
2019-Nov-14 16:55 278 7 gusting 11 17.8
2019-Nov-14 16:50 266 7 gusting 11 17.8
2019-Nov-14 16:45 267 8 gusting 11 17.8
2019-Nov-14 16:40 266 7 gusting 11 17.8
2019-Nov-14 16:35 277 8 gusting 11 17.8
2019-Nov-14 16:30 248 8 gusting 11 18.3
2019-Nov-14 16:25 261 7 gusting 12 18.3
2019-Nov-14 16:20 278 8 gusting 12 17.8
2019-Nov-14 16:15 274 7 gusting 12 18.3
2019-Nov-14 16:10 266 8 gusting 12 18.3
2019-Nov-14 16:05 287 7 gusting 11 18.3
2019-Nov-14 16:00 268 6 gusting 10 18.3
2019-Nov-14 15:55 274 6 gusting 11 18.3
2019-Nov-14 15:50 271 6 gusting 11 18.3
2019-Nov-14 15:45 271 6 gusting 11 18.3
2019-Nov-14 15:40 266 7 gusting 11 18.3
2019-Nov-14 15:35 259 7 gusting 10 18.3
2019-Nov-14 15:31 245 6 gusting 9 18.3
2019-Nov-14 15:25 266 6 gusting 10 18.3
2019-Nov-14 15:16 266 7 gusting 11 18.3
2019-Nov-14 15:10 269 6 gusting 9 17.8
2019-Nov-14 15:05 264 7 gusting 11 18.3
2019-Nov-14 14:55 260 7 gusting 10 18.3
2019-Nov-14 14:50 271 7 gusting 9 18.3
2019-Nov-14 14:40 276 6 gusting 8 18.3
2019-Nov-14 14:35 276 6 gusting 7 18.9
2019-Nov-14 14:25 304 5 gusting 8 18.3
2019-Nov-14 14:20 258 5 gusting 8 18.3
2019-Nov-14 14:10 270 6 gusting 8 18.3
2019-Nov-14 14:05 285 6 gusting 7 18.3
2019-Nov-14 14:00 288 6 gusting 8 18.3
2019-Nov-14 13:55 251 6 gusting 8 18.3
2019-Nov-14 13:50 266 6 gusting 9 18.3
2019-Nov-14 13:40 269 6 gusting 8 18.3
2019-Nov-14 13:35 272 6 gusting 8 18.3
2019-Nov-14 13:30 271 6 gusting 9 18.3
2019-Nov-14 13:25 248 6 gusting 9 18.3
2019-Nov-14 13:20 264 6 gusting 9 18.3
2019-Nov-14 13:10 285 6 gusting 9 18.3
2019-Nov-14 13:05 290 6 gusting 8 18.3
2019-Nov-14 13:02 267 5 gusting 8 18.3
2019-Nov-14 12:55 262 5 gusting 8 17.8
2019-Nov-14 12:50 263 6 gusting 9 18.3
2019-Nov-14 12:36 266 6 gusting 8 18.3
2019-Nov-14 12:32 268 6 gusting 8 18.3
2019-Nov-14 12:25 273 6 gusting 9 18.3
2019-Nov-14 12:20 283 6 gusting 9 17.8
2019-Nov-14 12:16 287 6 gusting 8 17.8
2019-Nov-14 12:10 290 6 gusting 8 18.3
2019-Nov-14 12:05 289 6 gusting 9 18.3
2019-Nov-14 12:02 282 6 gusting 9 18.3
2019-Nov-14 11:55 280 6 gusting 7 18.3
2019-Nov-14 11:50 283 6 gusting 7 17.8
2019-Nov-14 11:46 277 5 gusting 6 17.8
2019-Nov-14 11:41 281 5 gusting 6 17.8
2019-Nov-14 11:35 271 5 gusting 6 17.8
2019-Nov-14 11:33 280 5 gusting 6 17.8
2019-Nov-14 11:25 289 4 gusting 6 17.8
2019-Nov-14 11:20 271 5 gusting 6 17.2
2019-Nov-14 11:16 277 5 gusting 7 17.2
2019-Nov-14 11:10 280 4 gusting 7 17.2
2019-Nov-14 11:05 278 3 gusting 6 17.2
2019-Nov-14 11:01 270 4 gusting 6 17.2
2019-Nov-14 10:55 277 4 gusting 6 17.2
2019-Nov-14 10:50 278 5 gusting 6 17.2
2019-Nov-14 10:46 281 3 gusting 5 17.2
2019-Nov-14 10:40 278 3 gusting 6 17.2
2019-Nov-14 10:35 289 4 gusting 6 16.7
2019-Nov-14 10:31 285 3 gusting 6 16.7
2019-Nov-14 10:25 281 3 gusting 6 16.7
2019-Nov-14 10:20 282 5 gusting 6 16.7
2019-Nov-14 10:16 298 4 gusting 6 16.7
2019-Nov-14 10:10 297 4 gusting 6 16.7
2019-Nov-14 10:05 301 5 gusting 6 16.7
2019-Nov-14 10:01 299 5 gusting 6 16.7
2019-Nov-14 09:55 298 2 gusting 4 16.7
2019-Nov-14 09:50 292 1 gusting 2 16.7
2019-Nov-14 09:46 278 1 gusting 2 16.7
2019-Nov-14 09:40 270 1 gusting 2 16.7
2019-Nov-14 09:35 284 1 gusting 3 16.7
2019-Nov-14 09:30 285 2 gusting 3 16.7
2019-Nov-14 09:25 292 1 gusting 3 17.2
2019-Nov-14 09:20 218 0 gusting 3 17.2
2019-Nov-14 09:16 273 1 gusting 4 16.7
2019-Nov-14 09:10 271 1 gusting 4 17.2
2019-Nov-14 09:05 131 16.7
2019-Nov-14 09:01 239 0 gusting 3 16.7
2019-Nov-14 08:55 172 0 gusting 4 16.1
2019-Nov-14 08:50 220 1 gusting 4 15.6
2019-Nov-14 08:45 179 0 gusting 2 15.6
2019-Nov-14 08:40 201 0 gusting 3 15.6
2019-Nov-14 08:35 178 15.0
2019-Nov-14 08:30 141 15.0
2019-Nov-14 08:25 241 14.4
2019-Nov-14 08:20 174 0 gusting 4 14.4
2019-Nov-14 08:15 203 0 gusting 4 14.4
2019-Nov-14 08:10 200 13.9
2019-Nov-14 08:05 210 0 gusting 2 13.9
2019-Nov-14 08:00 194 13.9
2019-Nov-14 07:55 219 13.9
2019-Nov-14 07:50 214 13.9
2019-Nov-14 07:45 214 13.9
2019-Nov-14 07:40 214 13.9
2019-Nov-14 07:35 214 13.9
2019-Nov-14 07:30 214 13.9
2019-Nov-14 07:25 214 13.3
2019-Nov-14 07:20 214 13.3
2019-Nov-14 07:15 212 13.3
2019-Nov-14 07:10 212 13.3
2019-Nov-14 07:05 225 13.9
2019-Nov-14 07:00 222 0 gusting 3 13.9
2019-Nov-14 06:55 226 13.9
2019-Nov-14 06:50 198 1 gusting 4 13.9
2019-Nov-14 06:45 211 1 gusting 3 13.9
2019-Nov-14 06:40 236 0 gusting 3 14.4
2019-Nov-14 06:35 237 0 gusting 2 14.4
2019-Nov-14 06:30 269 0 gusting 2 14.4
2019-Nov-14 06:25 347 0 gusting 2 13.9
2019-Nov-14 06:20 105 13.9
2019-Nov-14 06:15 178 13.9
2019-Nov-14 06:10 110 13.9
2019-Nov-14 06:05 218 13.9
2019-Nov-14 05:55 226 13.9
2019-Nov-14 05:45 215 13.9
2019-Nov-14 05:40 200 0 gusting 2 13.9
2019-Nov-14 05:30 222 0 gusting 2 13.9
2019-Nov-14 05:25 202 0 gusting 2 13.9
2019-Nov-14 05:20 160 0 gusting 2 13.9
2019-Nov-14 05:10 195 13.9
2019-Nov-14 05:05 153 0 gusting 3 13.9
2019-Nov-14 04:55 205 13.9
2019-Nov-14 04:50 143 0 gusting 2 13.9
2019-Nov-14 04:45 116 13.9
2019-Nov-14 04:35 124 0 gusting 3 13.9
2019-Nov-14 04:30 168 0 gusting 3 13.9
2019-Nov-14 04:25 177 0 gusting 3 13.9
2019-Nov-14 04:20 200 0 gusting 3 13.9
2019-Nov-14 04:15 169 0 gusting 3 13.3
2019-Nov-14 04:10 185 13.3
2019-Nov-14 04:05 207 1 gusting 5 13.3
2019-Nov-14 04:00 171 1 gusting 4 13.3
2019-Nov-14 03:55 218 0 gusting 3 13.3
2019-Nov-14 03:50 160 1 gusting 2 13.3
2019-Nov-14 03:40 167 0 gusting 2 13.3
2019-Nov-14 03:35 205 0 gusting 3 13.3
2019-Nov-14 03:30 142 0 gusting 3 12.8
2019-Nov-14 03:25 096 12.8
2019-Nov-14 03:20 137 12.8
2019-Nov-14 03:15 152 0 gusting 3 12.8
2019-Nov-14 03:06 143 0 gusting 2 12.8
2019-Nov-14 03:03 146 12.8
2019-Nov-14 02:55 172 0 gusting 2 12.8
2019-Nov-14 02:50 195 12.8
2019-Nov-14 02:46 183 12.8
2019-Nov-14 02:40 123 12.8
2019-Nov-14 02:36 182 12.8
2019-Nov-14 02:32 164 12.8
2019-Nov-14 02:25 155 0 gusting 3 12.8
2019-Nov-14 02:20 127 0 gusting 3 12.8
2019-Nov-14 02:17 198 12.8
2019-Nov-14 02:10 153 12.8
2019-Nov-14 02:05 176 12.8
2019-Nov-14 02:01 136 12.8
2019-Nov-14 01:55 160 12.8
2019-Nov-14 01:50 090 12.8
2019-Nov-14 01:46 198 12.8
2019-Nov-14 01:40 205 12.8
2019-Nov-14 01:35 219 12.8
2019-Nov-14 01:32 070 12.8
2019-Nov-14 01:25 139 12.2
2019-Nov-14 01:20 133 12.8
2019-Nov-14 01:16 146 12.8
2019-Nov-14 01:10 146 12.8
2019-Nov-14 01:05 102 12.8
2019-Nov-14 01:01 139 12.8
2019-Nov-14 00:55 139 12.2
2019-Nov-14 00:50 139 12.8
2019-Nov-14 00:46 139 12.2
2019-Nov-14 00:40 139 12.2
2019-Nov-14 00:35 139 12.8
2019-Nov-14 00:31 139 12.8
2019-Nov-14 00:25 139 12.8
2019-Nov-14 00:20 139 12.8
2019-Nov-14 00:16 139 12.8
2019-Nov-14 00:10 129 12.8
2019-Nov-14 00:05 129 12.8
2019-Nov-14 00:01 129 12.8
2019-Nov-13 23:55 134 12.8
2019-Nov-13 23:50 145 12.8
2019-Nov-13 23:46 145 12.8
2019-Nov-13 23:40 145 12.8
2019-Nov-13 23:35 144 12.8
2019-Nov-13 23:31 134 12.8
2019-Nov-13 23:25 131 12.8
2019-Nov-13 23:20 195 13.3
2019-Nov-13 23:16 198 13.3
2019-Nov-13 23:10 139 13.3
2019-Nov-13 23:05 139 13.3
2019-Nov-13 23:01 119 13.3
2019-Nov-13 22:55 181 13.3
2019-Nov-13 22:50 155 13.3
2019-Nov-13 22:45 128 13.3
2019-Nov-13 22:40 101 13.3
2019-Nov-13 22:35 101 13.3
2019-Nov-13 22:30 101 13.3
2019-Nov-13 22:25 101 13.3
2019-Nov-13 22:20 101 13.3
2019-Nov-13 22:16 101 13.3
2019-Nov-13 22:10 098 13.3
2019-Nov-13 22:05 098 13.3
2019-Nov-13 22:00 098 13.9
2019-Nov-13 21:55 098 13.9
2019-Nov-13 21:50 098 13.3
2019-Nov-13 21:45 098 13.3
2019-Nov-13 21:40 098 13.3
2019-Nov-13 21:35 098 13.9
2019-Nov-13 21:31 098 13.9
2019-Nov-13 21:25 098 13.9
2019-Nov-13 21:20 098 13.9
2019-Nov-13 21:15 098 13.9
2019-Nov-13 21:10 098 14.4
2019-Nov-13 21:05 098 14.4
2019-Nov-13 21:01 098 14.4